Home > Weather > Cheltenham > Past weeks

Flag for United Kingdom Weather for the Past 2 Weeks in Cheltenham, England, United Kingdom

Now
36 °F

Clear.


Feels Like: 30 °F
Forecast: 34 / 42 °F
Wind: 7 mph from South

Location: Fairford Royal Air Force Base

Current Time: Feb 12, 2016 at 1:26:40 AM

Latest Report: Feb 12, 2016 at 12:58 AM


Visibility: N/A

Pressure: 29.47 "Hg

Humidity: 100%

Dew point: 36 °F

Location of CheltenhamLocation

Historic Weather in Cheltenham — Graph

°F

Cheltenham Temperature Yesterday

Maximum temperature yesterday: 46 °F (at 1:58 PM)
Minimum temperature yesterday: 25 °F (at 6:58 AM)
Average temperature yesterday: 36 °F

High & Low Weather Summary for the Past Weeks

 TemperatureHumidityPressure
High55 °F (Jan 31, 12:58 PM)100% (Jan 28, 12:58 AM)30.36 "Hg (Jan 28, 12:58 AM)
Low25 °F (Feb 11, 6:58 AM)53% (Jan 30, 2:58 PM)28.96 "Hg (Feb 8, 7:01 AM)
Average44 °F95%29.70 "Hg
* Reported Jan 27 11:58 PM — Feb 11 11:58 PM, Cheltenham, Weather by CustomWeather, © 2016

Note: Actual official high and low records may vary slightly from our data, if they occured in-between our weather recording intervals... More about our weather records

Advertising

Cheltenham Weather History for the Previous 24 Hours

 ConditionsComfort  
Time TempWeatherWind HumidityBarometerVisibility
11:58 PM
Thu, Feb 11
36 °FClear.6 mph100%29.48 "HgN/A
10:58 PM35 °FClear.5 mph100%29.51 "HgN/A
9:03 PM39 °FPartly cloudy.6 mph100%29.53 "HgN/A
8:58 PM39 °FPassing clouds.6 mph100%29.55 "HgN/A
7:58 PM38 °FOvercast.3 mph99%29.57 "HgN/A
6:58 PM38 °FOvercast.2 mph97%29.58 "HgN/A
5:58 PM38 °FClear.3 mph95%29.59 "HgN/A
4:58 PM42 °FPartly sunny.5 mph84%29.59 "HgN/A
3:58 PM43 °FSunny.2 mph78%29.59 "HgN/A
2:58 PM44 °FScattered clouds.6 mph73%29.60 "HgN/A
1:58 PM46 °FSunny.3 mph67%29.62 "HgN/A
1:03 PM45 °FSunny.3 mph81%29.61 "Hg2 mi
12:58 PM44 °FSunny.5 mph81%29.63 "Hg3 mi
12:03 PM41 °FFog.3 mph93%29.63 "Hg3 mi
11:58 AM41 °FFog.2 mph93%29.65 "Hg3 mi
11:03 AM37 °FFog.2 mph100%29.65 "Hg3 mi
10:58 AM38 °FFog.3 mph100%29.67 "Hg3 mi
9:58 AM33 °FFog.2 mph100%29.66 "Hg5 mi
8:58 AM28 °FIce fog.No wind100%29.67 "Hg3 mi
7:58 AM26 °FIce fog.No wind100%29.67 "Hg4 mi
6:58 AM25 °FCold.3 mph100%29.65 "HgN/A
6:04 AM28 °FIce fog.2 mph100%29.63 "Hg2 mi
5:59 AM28 °FIce fog.2 mph100%29.63 "Hg5 mi
5:02 AM27 °FIce fog.2 mph100%29.63 "Hg5 mi
3:58 AM27 °FClear.3 mph100%29.66 "HgN/A
2:58 AM29 °FClear.2 mph100%29.66 "HgN/A
1:58 AM31 °FClear.3 mph100%29.66 "HgN/A
Weather by CustomWeather, © 2016

See weather overviewHow to use our weather pages